Weather History for Dothan, AL

Change the Weather History Date:

Friday, November 9, 2012

  Actual Average Record
Temperature  
Mean Temperature 54 °F 60 °F  
Max Temperature 71 °F 73 °F 84 °F (1945)
Min Temperature 36 °F 48 °F 30 °F (1951)
Degree Days  
Heating Degree Days 11 6  
Month to date heating degree days 63 45  
Since 1 July heating degree days 116 104  
Growing Degree Days 4 (Base 50)    
Moisture  
Dew Point 36 °F    
Average Humidity 64    
Maximum Humidity 93    
Minimum Humidity 24    
Precipitation  
Precipitation 0.00 in 0.12 in 0.61 in (1968)
Month to date precipitation 0.05 0.86  
Year to date precipitation 35.92 46.25  
Sea Level Pressure  
Sea Level Pressure 30.28 in    
Wind  
Wind Speed 0 mph (NNW)    
Max Wind Speed 5 mph    
Max Gust Speed -    
Visibility 10 miles    
Events      
T = Trace of Precipitation, MM = Missing Value Source: NWS Daily Summary

Daily Weather History Graph

Daily Weather History Graph

Search for Another Location

Airport:

Trip Planner

Search our weather history database for the weather conditions in past years. The results will help you decide how hot, cold, wet, or windy it might be!

Date:

Astronomy

Nov. 09, 2012 Rise Set
Actual Time 6:04 AM CST 4:46 PM CST
Civil Twilight 5:39 AM CST 5:11 PM CST
Nautical Twilight 5:10 AM CST 5:40 PM CST
Astronomical Twilight 4:41 AM CST 6:09 PM CST
Moon 1:20 AM CST (11/9) 1:44 PM CST (11/9)
Length of Visible Light 11h 32m
Length of Day
10h 41m
Waning Crescent, 23% of the Moon is Illuminated
Nov 9
Waning Crescent
Nov 13
New
Nov 20
First Quarter
Nov 28
Full
Dec 6
Last Quarter

Hourly Weather History & Observations

Time (CST) Temp. Windchill Dew Point Humidity Pressure Visibility Wind Dir Wind Speed Gust Speed Precip Events Conditions
12:53 AM 39.0 °F - 36.0 °F 89% 30.25 in 10.0 mi Calm Calm - N/A   Clear
1:53 AM 37.9 °F - 35.1 °F 89% 30.25 in 10.0 mi Calm Calm - N/A   Clear
2:53 AM 39.0 °F - 36.0 °F 89% 30.25 in 10.0 mi Calm Calm - N/A   Clear
3:53 AM 37.0 °F - 35.1 °F 93% 30.25 in 10.0 mi Calm Calm - N/A   Clear
4:53 AM 37.9 °F - 36.0 °F 93% 30.27 in 10.0 mi Calm Calm - N/A   Clear
5:53 AM 37.0 °F - 34.0 °F 89% 30.29 in 10.0 mi Calm Calm - N/A   Clear
6:53 AM 39.9 °F 37.8 °F 36.0 °F 86% 30.32 in 10.0 mi NNW 3.5 mph - N/A   Clear
7:53 AM 51.1 °F - 42.1 °F 71% 30.33 in 10.0 mi Calm Calm - N/A   Clear
8:53 AM 57.0 °F - 42.1 °F 57% 30.35 in 10.0 mi Calm Calm - N/A   Clear
9:53 AM 64.0 °F - 37.9 °F 38% 30.34 in 10.0 mi Calm Calm - N/A   Clear
10:53 AM 64.9 °F - 36.0 °F 34% 30.33 in 10.0 mi Variable 3.5 mph - N/A   Clear
11:53 AM 68.0 °F - 33.1 °F 27% 30.30 in 10.0 mi Variable 4.6 mph - N/A   Clear
12:53 PM 70.0 °F - 34.0 °F 27% 30.27 in 10.0 mi Variable 3.5 mph - N/A   Clear
1:53 PM 70.0 °F - 33.1 °F 26% 30.24 in 10.0 mi Calm Calm - N/A   Clear
2:53 PM 70.0 °F - 30.9 °F 24% 30.24 in 10.0 mi Calm Calm - N/A   Clear
3:53 PM 69.1 °F - 30.9 °F 24% 30.24 in 10.0 mi Calm Calm - N/A   Clear
4:53 PM 61.0 °F - 37.0 °F 41% 30.25 in 10.0 mi Calm Calm - N/A   Clear
5:53 PM 52.0 °F - 39.0 °F 61% 30.26 in 10.0 mi Calm Calm - N/A   Clear
6:53 PM 48.9 °F - 39.0 °F 69% 30.27 in 10.0 mi Calm Calm - N/A   Clear
7:53 PM 46.0 °F - 39.9 °F 79% 30.28 in 10.0 mi Calm Calm - N/A   Clear
8:53 PM 45.0 °F - 37.9 °F 76% 30.29 in 10.0 mi Calm Calm - N/A   Clear
9:53 PM 45.0 °F - 39.0 °F 80% 30.30 in 10.0 mi Calm Calm - N/A   Clear
10:53 PM 43.0 °F - 37.9 °F 82% 30.30 in 10.0 mi Calm Calm - N/A   Clear
11:53 PM 43.0 °F - 37.9 °F 82% 30.29 in 10.0 mi Calm Calm - N/A   Clear